Location: Santa Cristina
(46.5667°N, 11.7167°E)
Time: 04:09:50
(UTC+00:00)

Spot 4 Rocket - Pass Details

Date: 21 April 2021
Orbit: 776 x 781 km, 98.7° (Epoch: 10 May)

Event Time Altitude Azimuth Distance (km) Brightness Sun altitude
Rises 03:16:41 0° 10° (N) 3,278 7.9 -10.0°
Reaches altitude 10° 03:19:02 10° 7° (N) 2,345 7.0 -9.7°
Maximum altitude 03:24:05 57° 290° (WNW) 921 4.2 -8.9°
Drops below altitude 10° 03:29:06 10° 213° (SSW) 2,326 6.0 -8.2°
Enters shadow 03:30:17 - 210° (SSW) 2,796 6.4 -8.0°
